Location: Bouillancy
(49.1149°N, 2.9308°E)
Time: 23:03:59
(UTC+00:00)

CZ-4C R/B - Pass Details

Date: 30 September 2020
Orbit: 626 x 1376 km, 63.4° (Epoch: 25 October)

Event Time Altitude Azimuth Distance (km) Brightness Sun altitude
Rises 18:42:04 0° 186° (S) 3,015 5.1 -12.9°
Reaches altitude 10° 18:44:27 10° 176° (S) 2,173 4.2 -13.2°
Maximum altitude 18:48:45 31° 115° (ESE) 1,355 2.7 -13.9°
Drops below altitude 10° 18:53:44 10° 55° (NE) 2,543 4.3 -14.7°
